Time,TemperatureF,DewpointF,PressureIn,WindDirection,WindDirectionDegrees,WindSpeedMPH,WindSpeedGustMPH,Humidity,HourlyPrecipIn,Conditions,Clouds,dailyrainin,SoftwareType,DateUTC
2013-01-08 00:00:00,51.1,44.5,30.02,NW,306,3.0,12.0,78,0.00,,,0.00,Wunderground v.1.15,2013-01-08 08:00:00,
2013-01-08 00:09:00,51.1,44.5,30.02,North,0,3.0,3.0,78,0.00,,,0.00,Wunderground v.1.15,2013-01-08 08:09:00,
2013-01-08 00:19:00,51.0,45.0,30.02,North,354,3.0,3.0,80,0.00,,,0.00,Wunderground v.1.15,2013-01-08 08:19:00,
2013-01-08 00:29:00,50.7,45.1,30.02,North,0,2.0,2.0,81,0.00,,,0.00,Wunderground v.1.15,2013-01-08 08:29:00,
2013-01-08 00:39:00,50.8,45.2,30.02,North,352,3.0,3.0,81,0.00,,,0.00,Wunderground v.1.15,2013-01-08 08:39:00,
2013-01-08 00:44:00,50.8,45.2,30.02,NW,306,3.0,11.0,81,0.00,,,0.00,Wunderground v.1.15,2013-01-08 08:44:00,
2013-01-08 00:54:00,50.7,45.4,30.02,NW,304,3.0,7.0,82,0.00,,,0.00,Wunderground v.1.15,2013-01-08 08:54:00,
2013-01-08 00:59:00,50.7,45.4,30.02,NNW,335,3.0,3.0,82,0.00,,,0.00,Wunderground v.1.15,2013-01-08 08:59:00,
2013-01-08 01:09:00,50.4,45.1,30.03,NNE,13,2.0,2.0,82,0.00,,,0.00,Wunderground v.1.15,2013-01-08 09:09:00,
2013-01-08 01:14:00,50.2,45.2,30.03,North,0,2.0,11.0,83,0.00,,,0.00,Wunderground v.1.15,2013-01-08 09:14:00,
2013-01-08 01:24:00,50.4,45.4,30.03,NNW,344,3.0,11.0,83,0.00,,,0.00,Wunderground v.1.15,2013-01-08 09:24:00,
2013-01-08 01:34:00,50.5,45.8,30.03,NNW,339,4.0,11.0,84,0.00,,,0.00,Wunderground v.1.15,2013-01-08 09:34:00,
2013-01-08 01:39:00,50.4,45.7,30.04,North,357,4.0,4.0,84,0.00,,,0.00,Wunderground v.1.15,2013-01-08 09:39:00,
2013-01-08 01:49:00,50.2,45.9,30.04,NNW,340,4.0,4.0,85,0.00,,,0.00,Wunderground v.1.15,2013-01-08 09:49:00,
2013-01-08 01:54:00,50.2,45.9,30.04,NNE,20,4.0,11.0,85,0.00,,,0.00,Wunderground v.1.15,2013-01-08 09:54:00,
2013-01-08 02:04:00,50.5,45.8,30.04,NNW,339,5.0,11.0,84,0.00,,,0.00,Wunderground v.1.15,2013-01-08 10:04:00,
2013-01-08 02:14:00,50.5,45.8,30.03,WNW,299,4.0,13.0,84,0.00,,,0.00,Wunderground v.1.15,2013-01-08 10:14:00,
2013-01-08 02:24:00,50.4,45.7,30.03,NW,325,3.0,13.0,84,0.00,,,0.00,Wunderground v.1.15,2013-01-08 10:24:00,
2013-01-08 02:29:00,50.2,45.6,30.03,NNW,340,2.0,2.0,84,0.00,,,0.00,Wunderground v.1.15,2013-01-08 10:29:00,
2013-01-08 02:39:00,49.8,45.8,30.03,WNW,295,2.0,13.0,86,0.00,,,0.00,Wunderground v.1.15,2013-01-08 10:39:00,
2013-01-08 02:49:00,49.4,45.4,30.03,West,275,2.0,2.0,86,0.00,,,0.00,Wunderground v.1.15,2013-01-08 10:49:00,
2013-01-08 02:54:00,49.4,45.7,30.03,West,271,3.0,3.0,87,0.00,,,0.00,Wunderground v.1.15,2013-01-08 10:54:00,
2013-01-08 03:04:00,49.1,45.4,30.03,NNW,343,2.0,11.0,87,0.00,,,0.00,Wunderground v.1.15,2013-01-08 11:04:00,
2013-01-08 03:14:00,48.6,44.9,30.02,North,10,1.0,11.0,87,0.00,,,0.00,Wunderground v.1.15,2013-01-08 11:14:00,
2013-01-08 03:19:00,48.2,44.5,30.02,North,10,1.0,8.0,87,0.00,,,0.00,Wunderground v.1.15,2013-01-08 11:19:00,
2013-01-08 03:29:00,47.6,43.9,30.02,NNE,32,0.0,8.0,87,0.00,,,0.00,Wunderground v.1.15,2013-01-08 11:29:00,
2013-01-08 03:39:00,46.5,43.4,30.02,NNE,32,0.0,8.0,89,0.00,,,0.00,Wunderground v.1.15,2013-01-08 11:39:00,
2013-01-08 03:49:00,46.2,43.4,30.02,NNE,32,0.0,6.0,90,0.00,,,0.00,Wunderground v.1.15,2013-01-08 11:49:00,
2013-01-08 03:54:00,46.2,43.7,30.02,NNE,32,0.0,6.0,91,0.00,,,0.00,Wunderground v.1.15,2013-01-08 11:54:00,
2013-01-08 04:04:00,46.4,44.2,30.02,NNW,340,0.0,6.0,92,0.00,,,0.00,Wunderground v.1.15,2013-01-08 12:04:00,
2013-01-08 04:09:00,46.7,44.5,30.02,NW,322,1.0,6.0,92,0.00,,,0.00,Wunderground v.1.15,2013-01-08 12:09:00,
2013-01-08 04:19:00,47.1,44.6,30.02,NW,312,1.0,1.0,91,0.00,,,0.00,Wunderground v.1.15,2013-01-08 12:19:00,
2013-01-08 04:29:00,47.1,44.6,30.03,NW,313,0.0,5.0,91,0.00,,,0.00,Wunderground v.1.15,2013-01-08 12:29:00,
2013-01-08 04:34:00,46.8,44.0,30.03,NNW,332,0.0,5.0,90,0.00,,,0.00,Wunderground v.1.15,2013-01-08 12:34:00,
2013-01-08 04:44:00,46.5,43.7,30.03,NW,316,1.0,6.0,90,0.00,,,0.00,Wunderground v.1.15,2013-01-08 12:44:00,
2013-01-08 04:54:00,46.8,43.7,30.03,West,280,1.0,6.0,89,0.00,,,0.00,Wunderground v.1.15,2013-01-08 12:54:00,
2013-01-08 04:59:00,47.3,43.6,30.03,NW,319,2.0,2.0,87,0.00,,,0.00,Wunderground v.1.15,2013-01-08 12:59:00,
2013-01-08 05:09:00,48.0,42.8,30.02,NNW,346,1.0,6.0,82,0.00,,,0.00,Wunderground v.1.15,2013-01-08 13:09:00,
2013-01-08 05:19:00,48.2,43.0,30.02,WNW,299,1.0,7.0,82,0.00,,,0.00,Wunderground v.1.15,2013-01-08 13:19:00,
2013-01-08 05:24:00,48.3,43.1,30.02,WNW,299,2.0,7.0,82,0.00,,,0.00,Wunderground v.1.15,2013-01-08 13:24:00,
2013-01-08 05:34:00,48.3,42.4,30.02,NNE,18,1.0,3.0,80,0.00,,,0.00,Wunderground v.1.15,2013-01-08 13:34:00,
2013-01-08 05:39:00,48.6,42.7,30.02,North,1,1.0,7.0,80,0.00,,,0.00,Wunderground v.1.15,2013-01-08 13:39:00,
2013-01-08 05:49:00,48.8,42.6,30.02,ESE,102,2.0,2.0,79,0.00,,,0.00,Wunderground v.1.15,2013-01-08 13:49:00,
2013-01-08 05:54:00,48.8,42.9,30.02,SSE,150,1.0,11.0,80,0.00,,,0.00,Wunderground v.1.15,2013-01-08 13:54:00,
2013-01-08 06:04:00,48.3,43.1,30.02,North,350,1.0,11.0,82,0.00,,,0.00,Wunderground v.1.15,2013-01-08 14:04:00,
2013-01-08 06:14:00,47.3,42.7,30.03,North,352,1.0,11.0,84,0.00,,,0.00,Wunderground v.1.15,2013-01-08 14:14:00,
2013-01-08 06:24:00,47.1,42.2,30.03,NNW,343,1.0,8.0,83,0.00,,,0.00,Wunderground v.1.15,2013-01-08 14:24:00,
2013-01-08 06:29:00,47.6,42.1,30.03,NE,40,1.0,1.0,81,0.00,,,0.00,Wunderground v.1.15,2013-01-08 14:29:00,
2013-01-08 06:39:00,47.1,41.9,30.03,NE,40,0.0,8.0,82,0.00,,,0.00,Wunderground v.1.15,2013-01-08 14:39:00,
2013-01-08 06:49:00,47.1,41.9,30.03,NNE,17,1.0,1.0,82,0.00,,,0.00,Wunderground v.1.15,2013-01-08 14:49:00,
2013-01-08 06:59:00,47.9,42.0,30.03,SE,143,1.0,5.0,80,0.00,,,0.00,Wunderground v.1.15,2013-01-08 14:59:00,
2013-01-08 07:04:00,48.2,42.0,30.03,North,354,1.0,5.0,79,0.00,,,0.00,Wunderground v.1.15,2013-01-08 15:04:00,
2013-01-08 07:14:00,48.8,41.9,30.03,North,0,1.0,6.0,77,0.00,,,0.00,Wunderground v.1.15,2013-01-08 15:14:00,
2013-01-08 07:24:00,48.6,42.0,30.03,North,0,1.0,6.0,78,0.00,,,0.00,Wunderground v.1.15,2013-01-08 15:24:00,
2013-01-08 07:29:00,48.6,41.7,30.03,North,0,1.0,6.0,77,0.00,,,0.00,Wunderground v.1.15,2013-01-08 15:29:00,
2013-01-08 07:39:00,48.5,42.0,30.03,NW,323,1.0,6.0,78,0.00,,,0.00,Wunderground v.1.15,2013-01-08 15:39:00,
2013-01-08 07:49:00,48.3,41.8,30.03,NW,322,1.0,6.0,78,0.00,,,0.00,Wunderground v.1.15,2013-01-08 15:49:00,
2013-01-08 07:54:00,48.5,42.0,30.05,North,359,1.0,6.0,78,0.00,,,0.00,Wunderground v.1.15,2013-01-08 15:54:00,
2013-01-08 08:04:00,49.1,42.2,30.05,NW,323,1.0,3.0,77,0.00,,,0.00,Wunderground v.1.15,2013-01-08 16:04:00,
2013-01-08 08:09:00,49.5,41.9,30.05,NNW,328,1.0,6.0,75,0.00,,,0.00,Wunderground v.1.15,2013-01-08 16:09:00,
2013-01-08 08:19:00,50.1,42.8,30.05,NW,325,1.0,12.0,76,0.00,,,0.00,Wunderground v.1.15,2013-01-08 16:19:00,
2013-01-08 08:29:00,50.7,42.7,30.07,NW,318,3.0,12.0,74,0.00,,,0.00,Wunderground v.1.15,2013-01-08 16:29:00,
2013-01-08 08:34:00,50.5,42.2,30.07,WNW,296,3.0,12.0,73,0.00,,,0.00,Wunderground v.1.15,2013-01-08 16:34:00,
2013-01-08 08:44:00,50.5,42.5,30.06,NNW,335,3.0,10.0,74,0.00,,,0.00,Wunderground v.1.15,2013-01-08 16:44:00,
2013-01-08 08:54:00,51.6,43.2,30.07,NNW,336,3.0,10.0,73,0.00,,,0.00,Wunderground v.1.15,2013-01-08 16:54:00,
2013-01-08 08:59:00,52.0,42.9,30.07,NW,322,3.0,10.0,71,0.00,,,0.00,Wunderground v.1.15,2013-01-08 16:59:00,
2013-01-08 09:09:00,52.6,43.1,30.06,NNW,335,4.0,10.0,70,0.00,,,0.00,Wunderground v.1.15,2013-01-08 17:09:00,
2013-01-08 09:19:00,52.9,43.4,30.06,NNW,343,5.0,13.0,70,0.00,,,0.00,Wunderground v.1.15,2013-01-08 17:19:00,
2013-01-08 09:24:00,53.2,43.7,30.06,NW,325,4.0,13.0,70,0.00,,,0.00,Wunderground v.1.15,2013-01-08 17:24:00,
2013-01-08 09:34:00,53.9,44.0,30.06,NNW,328,3.0,13.0,69,0.00,,,0.00,Wunderground v.1.15,2013-01-08 17:34:00,
2013-01-08 09:39:00,54.4,44.1,30.07,NW,304,3.0,13.0,68,0.00,,,0.00,Wunderground v.1.15,2013-01-08 17:39:00,
2013-01-08 09:49:00,55.0,43.8,30.07,NW,323,3.0,12.0,66,0.00,,,0.00,Wunderground v.1.15,2013-01-08 17:49:00,
2013-01-08 09:59:00,55.4,44.2,30.07,NW,308,4.0,12.0,66,0.00,,,0.00,Wunderground v.1.15,2013-01-08 17:59:00,
2013-01-08 10:04:00,55.6,44.4,30.07,NW,308,3.0,12.0,66,0.00,,,0.00,Wunderground v.1.15,2013-01-08 18:04:00,
2013-01-08 10:14:00,56.0,45.2,30.07,ENE,59,3.0,11.0,67,0.00,,,0.00,Wunderground v.1.15,2013-01-08 18:14:00,
2013-01-08 10:24:00,56.3,44.3,30.07,North,357,3.0,11.0,64,0.00,,,0.00,Wunderground v.1.15,2013-01-08 18:24:00,
2013-01-08 10:29:00,56.6,44.6,30.07,NNW,332,3.0,3.0,64,0.00,,,0.00,Wunderground v.1.15,2013-01-08 18:29:00,
2013-01-08 10:39:00,57.0,44.1,30.06,North,359,2.0,2.0,62,0.00,,,0.00,Wunderground v.1.15,2013-01-08 18:39:00,
2013-01-08 10:49:00,57.3,44.4,30.06,NW,311,2.0,8.0,62,0.00,,,0.00,Wunderground v.1.15,2013-01-08 18:49:00,
2013-01-08 10:54:00,57.5,45.0,30.06,North,7,2.0,8.0,63,0.00,,,0.00,Wunderground v.1.15,2013-01-08 18:54:00,
2013-01-08 11:04:00,57.6,44.2,30.06,NNW,337,2.0,8.0,61,0.00,,,0.00,Wunderground v.1.15,2013-01-08 19:04:00,
2013-01-08 11:09:00,57.6,43.8,30.05,NW,325,2.0,8.0,60,0.00,,,0.00,Wunderground v.1.15,2013-01-08 19:09:00,
2013-01-08 11:19:00,57.5,43.7,30.05,North,353,4.0,4.0,60,0.00,,,0.00,Wunderground v.1.15,2013-01-08 19:19:00,
2013-01-08 11:24:00,57.2,43.9,30.04,North,0,5.0,5.0,61,0.00,,,0.00,Wunderground v.1.15,2013-01-08 19:24:00,
2013-01-08 11:29:00,57.2,43.9,30.04,NW,315,4.0,8.0,61,0.00,,,0.00,Wunderground v.1.15,2013-01-08 19:29:00,
2013-01-08 11:39:00,57.3,44.0,30.03,NNW,335,3.0,8.0,61,0.00,,,0.00,Wunderground v.1.15,2013-01-08 19:39:00,
2013-01-08 11:44:00,57.8,44.4,30.03,NW,311,3.0,11.0,61,0.00,,,0.00,Wunderground v.1.15,2013-01-08 19:44:00,
2013-01-08 11:54:00,58.6,44.3,30.02,North,353,3.0,11.0,59,0.00,,,0.00,Wunderground v.1.15,2013-01-08 19:54:00,
2013-01-08 11:59:00,58.9,45.5,30.02,NW,325,3.0,3.0,61,0.00,,,0.00,Wunderground v.1.15,2013-01-08 19:59:00,
2013-01-08 12:09:00,59.5,45.6,30.02,WNW,291,2.0,11.0,60,0.00,,,0.00,Wunderground v.1.15,2013-01-08 20:09:00,
2013-01-08 12:19:00,59.9,45.1,30.02,NW,306,2.0,2.0,58,0.00,,,0.00,Wunderground v.1.15,2013-01-08 20:19:00,
2013-01-08 12:24:00,60.1,44.8,30.01,NNW,335,3.0,3.0,57,0.00,,,0.00,Wunderground v.1.15,2013-01-08 20:24:00,
2013-01-08 12:34:00,60.5,45.6,30.01,NNW,329,2.0,8.0,58,0.00,,,0.00,Wunderground v.1.15,2013-01-08 20:34:00,
2013-01-08 12:39:00,60.5,44.7,30.00,NW,305,3.0,8.0,56,0.00,,,0.00,Wunderground v.1.15,2013-01-08 20:39:00,
2013-01-08 12:49:00,60.5,44.7,30.00,North,357,4.0,11.0,56,0.00,,,0.00,Wunderground v.1.15,2013-01-08 20:49:00,
2013-01-08 12:54:00,60.7,45.4,30.00,NNW,337,3.0,11.0,57,0.00,,,0.00,Wunderground v.1.15,2013-01-08 20:54:00,
2013-01-08 13:04:00,60.5,44.2,30.00,NW,319,3.0,5.0,55,0.00,,,0.00,Wunderground v.1.15,2013-01-08 21:04:00,
2013-01-08 13:14:00,60.5,45.2,30.00,NW,306,3.0,7.0,57,0.00,,,0.00,Wunderground v.1.15,2013-01-08 21:14:00,
2013-01-08 13:19:00,60.7,44.4,30.00,NNW,343,3.0,8.0,55,0.00,,,0.00,Wunderground v.1.15,2013-01-08 21:19:00,
2013-01-08 13:29:00,60.9,44.1,29.99,NNW,328,3.0,8.0,54,0.00,,,0.00,Wunderground v.1.15,2013-01-08 21:29:00,
2013-01-08 13:39:00,60.9,44.1,29.99,NNW,329,3.0,3.0,54,0.00,,,0.00,Wunderground v.1.15,2013-01-08 21:39:00,
2013-01-08 13:44:00,61.2,44.9,29.99,NW,313,2.0,8.0,55,0.00,,,0.00,Wunderground v.1.15,2013-01-08 21:44:00,
2013-01-08 13:54:00,61.2,45.4,29.99,NW,318,4.0,8.0,56,0.00,,,0.00,Wunderground v.1.15,2013-01-08 21:54:00,
2013-01-08 14:04:00,61.0,44.2,29.99,NNW,342,3.0,8.0,54,0.00,,,0.00,Wunderground v.1.15,2013-01-08 22:04:00,
2013-01-08 14:09:00,61.0,43.7,29.99,NNW,340,3.0,8.0,53,0.00,,,0.00,Wunderground v.1.15,2013-01-08 22:09:00,
2013-01-08 14:19:00,60.9,43.6,29.99,NW,322,3.0,3.0,53,0.00,,,0.00,Wunderground v.1.15,2013-01-08 22:19:00,
2013-01-08 14:24:00,60.4,44.6,30.00,NNW,328,3.0,8.0,56,0.00,,,0.00,Wunderground v.1.15,2013-01-08 22:24:00,
2013-01-08 14:34:00,59.3,43.6,30.00,NW,312,2.0,8.0,56,0.00,,,0.00,Wunderground v.1.15,2013-01-08 22:34:00,
2013-01-08 14:44:00,58.6,43.9,30.00,NW,308,2.0,5.0,58,0.00,,,0.00,Wunderground v.1.15,2013-01-08 22:44:00,
2013-01-08 14:49:00,58.3,43.6,30.00,West,280,2.0,7.0,58,0.00,,,0.00,Wunderground v.1.15,2013-01-08 22:49:00,
2013-01-08 14:59:00,58.0,43.7,30.00,NNW,343,3.0,7.0,59,0.00,,,0.00,Wunderground v.1.15,2013-01-08 22:59:00,
2013-01-08 15:04:00,57.8,43.1,30.00,NNW,337,3.0,7.0,58,0.00,,,0.00,Wunderground v.1.15,2013-01-08 23:04:00,
2013-01-08 15:14:00,57.5,44.1,30.00,NW,308,2.0,10.0,61,0.00,,,0.00,Wunderground v.1.15,2013-01-08 23:14:00,
2013-01-08 15:19:00,57.2,43.9,30.00,NW,318,2.0,10.0,61,0.00,,,0.00,Wunderground v.1.15,2013-01-08 23:19:00,
2013-01-08 15:29:00,56.6,43.7,30.00,NW,326,2.0,10.0,62,0.00,,,0.00,Wunderground v.1.15,2013-01-08 23:29:00,
2013-01-08 15:34:00,56.5,44.0,30.00,NNW,339,2.0,10.0,63,0.00,,,0.00,Wunderground v.1.15,2013-01-08 23:34:00,
2013-01-08 15:44:00,56.2,43.8,30.00,NNW,333,2.0,7.0,63,0.00,,,0.00,Wunderground v.1.15,2013-01-08 23:44:00,
2013-01-08 15:54:00,55.6,44.4,30.00,NNW,335,1.0,7.0,66,0.00,,,0.00,Wunderground v.1.15,2013-01-08 23:54:00,
2013-01-08 15:59:00,56.0,43.2,30.00,NNW,328,3.0,3.0,62,0.00,,,0.00,Wunderground v.1.15,2013-01-08 23:59:00,
2013-01-08 16:09:00,55.6,43.6,29.99,NW,312,2.0,2.0,64,0.00,,,0.00,Wunderground v.1.15,2013-01-09 00:09:00,
2013-01-08 16:19:00,55.0,43.8,29.99,NW,312,1.0,7.0,66,0.00,,,0.00,Wunderground v.1.15,2013-01-09 00:19:00,
2013-01-08 16:24:00,54.5,43.4,29.99,NNW,335,2.0,7.0,66,0.00,,,0.00,Wunderground v.1.15,2013-01-09 00:24:00,
2013-01-08 16:34:00,54.5,43.4,29.99,NNW,335,1.0,7.0,66,0.00,,,0.00,Wunderground v.1.15,2013-01-09 00:34:00,
2013-01-08 16:44:00,53.6,43.3,29.99,NNW,335,0.0,7.0,68,0.00,,,0.00,Wunderground v.1.15,2013-01-09 00:44:00,
2013-01-08 16:49:00,52.9,43.4,29.99,NNW,335,0.0,7.0,70,0.00,,,0.00,Wunderground v.1.15,2013-01-09 00:49:00,
2013-01-08 16:59:00,52.0,44.3,30.00,NNW,335,0.0,7.0,75,0.00,,,0.00,Wunderground v.1.15,2013-01-09 00:59:00,
2013-01-08 17:09:00,51.4,44.8,30.00,NNW,335,0.0,7.0,78,0.00,,,0.00,Wunderground v.1.15,2013-01-09 01:09:00,
2013-01-08 17:14:00,51.1,44.8,30.00,NNW,335,0.0,7.0,79,0.00,,,0.00,Wunderground v.1.15,2013-01-09 01:14:00,
2013-01-08 17:24:00,50.5,44.9,30.00,NNW,335,0.0,2.0,81,0.00,,,0.00,Wunderground v.1.15,2013-01-09 01:24:00,
2013-01-08 17:29:00,50.2,43.6,30.00,NNW,335,0.0,2.0,78,0.00,,,0.00,Wunderground v.1.15,2013-01-09 01:29:00,
2013-01-08 17:39:00,49.8,42.5,30.00,NNW,335,0.0,2.0,76,0.00,,,0.00,Wunderground v.1.15,2013-01-09 01:39:00,
2013-01-08 17:49:00,49.8,42.2,30.00,NNW,335,0.0,1.0,75,0.00,,,0.00,Wunderground v.1.15,2013-01-09 01:49:00,
2013-01-08 17:54:00,49.9,41.9,30.00,NNW,335,0.0,2.0,74,0.00,,,0.00,Wunderground v.1.15,2013-01-09 01:54:00,